WA0GMH-1 Weather Reports


time (UTC)temp
C
wind
direction
speed
KPH
gust
KPH
rain 1hr
cm
rain 24hr
cm
rain mn
cm
humidity
%
barometer
mb
20260507045127 7 270 0.0 0.0 0.00 0.00 0.00 80 1013.2
20260507044445 7 270 0.0 0.0 0.00 0.00 0.00 79 1013.3
20260507043803 7 270 0.0 0.0 0.00 0.00 0.00 79 1013.4
20260507043120 7 270 0.0 0.0 0.00 0.00 0.00 79 1013.5
20260507042438 7 270 0.0 0.0 0.00 0.00 0.00 78 1013.6
20260507041756 7 270 0.0 0.0 0.00 0.00 0.00 77 1013.6
20260507041114 8 270 0.0 0.0 0.00 0.00 0.00 75 1013.6
20260507040431 8 270 0.0 0.0 0.00 0.00 0.00 75 1013.8
20260507035749 8 270 0.0 0.0 0.00 0.00 0.00 73 1013.7
20260507035107 8 270 0.0 0.0 0.00 0.00 0.00 74 1013.6
20260507034425 8 270 0.0 0.0 0.00 0.00 0.00 73 1013.6
20260507033742 8 270 0.0 0.0 0.00 0.00 0.00 73 1013.7
20260507033100 8 270 0.0 0.0 0.00 0.00 0.00 73 1013.8
20260507032418 9 270 0.0 0.0 0.00 0.00 0.00 73 1013.8
20260507031736 9 270 0.0 0.0 0.00 0.00 0.00 72 1014.1
20260507031053 9 270 0.0 0.0 0.00 0.00 0.00 72 1014.2
20260507030411 10 270 0.0 0.0 0.00 0.00 0.00 73 1014.2
20260507025729 10 270 0.0 0.0 0.00 0.00 0.00 71 1014.1
20260507025047 10 270 0.0 0.0 0.00 0.00 0.00 71 1014.4
20260507024404 10 270 0.0 0.0 0.00 0.00 0.00 70 1014.1
20260507023722 10 270 0.0 0.0 0.00 0.00 0.00 70 1014.1
20260507023040 10 270 0.0 0.0 0.00 0.00 0.00 70 1014.2
20260507022358 11 270 0.0 0.0 0.00 0.00 0.00 70 1014.1
20260507021715 11 270 0.0 0.0 0.00 0.00 0.00 68 1014.2
20260507021033 11 270 0.0 0.0 0.00 0.00 0.00 68 1014.2
20260507020351 11 270 0.0 0.0 0.00 0.00 0.00 67 1014.3
20260507015709 12 270 0.0 0.0 0.00 0.00 0.00 67 1014.4
20260507015026 12 270 0.0 0.0 0.00 0.00 0.00 65 1014.3
20260507014344 12 270 0.0 0.0 0.00 0.00 0.00 62 1014.4
20260507013702 13 270 0.0 0.0 0.00 0.00 0.00 62 1014.4
20260507013020 13 270 0.0 0.0 0.00 0.00 0.00 61 1014.4
20260507012337 13 270 0.0 0.0 0.00 0.00 0.00 61 1014.3
20260507011655 13 270 0.0 0.0 0.00 0.00 0.00 61 1014.3
20260507011013 14 270 0.0 0.0 0.00 0.00 0.00 60 1014.5
20260507010331 14 270 0.0 0.0 0.00 0.00 0.00 60 1014.4
20260507005648 14 270 0.0 0.0 0.00 0.00 0.00 60 1014.5
20260507005006 15 270 0.0 0.0 0.00 0.00 0.00 59 1014.6
20260507004324 15 270 0.0 0.0 0.00 0.00 0.00 59 1014.8
20260507003642 15 270 0.0 0.0 0.00 0.00 0.00 59 1014.8
20260507002959 15 270 0.0 0.0 0.00 0.00 0.00 59 1014.7
20260507002317 15 270 0.0 0.0 0.00 0.00 0.00 59 1014.7
20260507001635 15 270 0.0 0.0 0.00 0.00 0.00 59 1014.7
20260507000953 16 270 0.0 0.0 0.00 0.00 0.00 59 1014.7
20260507000310 16 270 0.0 0.0 0.00 0.00 0.00 59 1014.7
20260506235628 16 270 0.0 0.0 0.00 0.00 0.00 57 1014.8
20260506234946 16 270 0.0 0.0 0.00 0.00 0.00 57 1014.9
20260506234304 16 270 0.0 0.0 0.00 0.00 0.00 57 1015.1
20260506233621 17 270 0.0 0.0 0.00 0.00 0.00 57 1014.9
20260506232940 17 270 0.0 0.0 0.00 0.00 0.00 57 1014.9
20260506232257 17 270 0.0 0.0 0.00 0.00 0.00 57 1014.9
20260506231615 17 270 0.0 0.0 0.00 0.00 0.00 55 1015.2
20260506230932 18 270 0.0 0.0 0.00 0.00 0.00 57 1015.2
20260506230251 17 270 0.0 0.0 0.00 0.00 0.00 60 1014.9
20260506225608 17 270 0.0 0.0 0.00 0.00 0.00 59 1015.0
20260506224926 17 270 0.0 0.0 0.00 0.00 0.00 58 1015.0
20260506224243 17 270 0.0 0.0 0.00 0.00 0.00 58 1015.1
20260506223602 17 270 0.0 0.0 0.00 0.00 0.00 59 1015.2
20260506222919 17 270 0.0 0.0 0.00 0.00 0.00 57 1015.3
20260506222237 17 270 0.0 0.0 0.00 0.00 0.00 57 1015.3
20260506221554 17 270 0.0 0.0 0.00 0.00 0.00 59 1015.3
20260506220913 17 270 0.0 0.0 0.00 0.00 0.00 59 1015.6
20260506220230 17 270 0.0 0.0 0.00 0.00 0.00 59 1015.6
20260506215548 17 270 0.0 0.0 0.00 0.00 0.00 57 1015.5
20260506214905 17 270 0.0 0.0 0.00 0.00 0.00 57 1015.5
20260506214224 17 270 0.0 0.0 0.00 0.00 0.00 57 1015.7
20260506213541 17 270 0.0 0.0 0.00 0.00 0.00 59 1015.8
20260506212859 17 270 0.0 0.0 0.00 0.00 0.00 59 1015.8
20260506212216 17 270 0.0 0.0 0.00 0.00 0.00 60 1015.8
20260506211535 17 270 0.0 0.0 0.00 0.00 0.00 59 1015.9
20260506210852 17 270 0.0 0.0 0.00 0.00 0.00 59 1016.0
20260506210210 17 270 0.0 0.0 0.00 0.00 0.00 60 1016.1
20260506205527 17 270 0.0 0.0 0.00 0.00 0.00 59 1016.1
20260506204846 17 270 0.0 0.0 0.00 0.00 0.00 59 1016.3
20260506204203 17 270 0.0 0.0 0.00 0.00 0.00 59 1016.3
20260506203521 17 270 0.0 0.0 0.00 0.00 0.00 60 1016.4
20260506202838 17 270 0.0 0.0 0.00 0.00 0.00 60 1016.5
20260506202157 17 270 0.0 0.0 0.00 0.00 0.00 60 1016.7
20260506201514 17 270 0.0 0.0 0.00 0.00 0.00 59 1016.5
20260506200832 16 270 0.0 0.0 0.00 0.00 0.00 61 1016.7
20260506200150 16 270 0.0 0.0 0.00 0.00 0.00 61 1016.9
20260506195508 16 270 0.0 0.0 0.00 0.00 0.00 61 1016.9
20260506194825 16 270 0.0 0.0 0.00 0.00 0.00 60 1017.1
20260506194143 15 270 0.0 0.0 0.00 0.00 0.00 62 1016.9
20260506193501 15 270 0.0 0.0 0.00 0.00 0.00 62 1017.0
20260506192819 15 270 0.0 0.0 0.00 0.00 0.00 61 1017.1
20260506192136 15 270 0.0 0.0 0.00 0.00 0.00 61 1016.9
20260506191454 15 270 0.0 0.0 0.00 0.00 0.00 65 1017.0
20260506190812 14 270 0.0 0.0 0.00 0.00 0.00 65 1017.2
20260506190130 14 270 0.0 0.0 0.00 0.00 0.00 63 1017.4
20260506185447 14 270 0.0 0.0 0.00 0.00 0.00 63 1017.3
20260506184805 14 270 0.0 0.0 0.00 0.00 0.00 66 1017.3
20260506184123 14 270 0.0 0.0 0.00 0.00 0.00 66 1017.5
20260506183441 14 270 0.0 0.0 0.00 0.00 0.00 65 1017.5
20260506182758 13 270 0.0 0.0 0.00 0.00 0.00 63 1017.4
20260506182116 13 270 0.0 0.0 0.00 0.00 0.00 66 1017.6
20260506180749 13 270 0.0 0.0 0.00 0.00 0.00 66 1017.7
20260506180106 13 270 0.0 0.0 0.00 0.00 0.00 66 1017.8
20260506175424 13 270 0.0 0.0 0.00 0.00 0.00 68 1018.2
20260506174742 13 270 0.0 0.0 0.00 0.00 0.00 68 1018.3
20260506174100 13 270 0.0 0.0 0.00 0.00 0.00 67 1018.1
20260506173417 13 270 0.0 0.0 0.00 0.00 0.00 68 1018.2
20260506172736 13 270 0.0 0.0 0.00 0.00 0.00 70 1018.1
20260506172053 12 270 0.0 0.0 0.00 0.00 0.00 70 1018.2
20260506171411 12 270 0.0 0.0 0.00 0.00 0.00 71 1018.1
20260506170728 12 270 0.0 0.0 0.00 0.00 0.00 69 1018.2
20260506170047 12 270 0.0 0.0 0.00 0.00 0.00 70 1018.2
20260506165404 12 270 0.0 0.0 0.00 0.00 0.00 72 1018.3
20260506164722 11 270 0.0 0.0 0.00 0.00 0.00 71 1018.4
20260506164039 11 270 0.0 0.0 0.00 0.00 0.00 71 1018.4
20260506163358 11 270 0.0 0.0 0.00 0.00 0.00 73 1018.4
20260506162715 11 270 0.0 0.0 0.00 0.00 0.00 72 1018.2
20260506162033 10 270 0.0 0.0 0.00 0.00 0.00 70 1018.3
20260506161350 10 270 0.0 0.0 0.00 0.00 0.00 73 1018.2
20260506160708 10 270 0.0 0.0 0.00 0.00 0.00 75 1018.2
20260506160026 10 270 0.0 0.0 0.00 0.00 0.00 76 1018.2
20260506155344 10 270 0.0 0.0 0.00 0.00 0.00 80 1018.2
20260506154701 10 270 0.0 0.0 0.00 0.00 0.00 81 1018.1
20260506154020 9 270 0.0 0.0 0.00 0.00 0.00 83 1018.3
20260506153337 9 270 0.0 0.0 0.00 0.00 0.00 83 1018.1
20260506152655 8 270 0.0 0.0 0.00 0.00 0.00 85 1018.5
20260506152012 8 270 0.0 0.0 0.00 0.00 0.00 85 1018.3
20260506151331 8 270 0.0 0.0 0.00 0.00 0.00 100 1018.5
20260506150648 8 270 0.0 0.0 0.00 0.00 0.00 2 1018.3
20260506150006 7 270 0.0 0.0 0.00 0.00 0.00 3 1018.3
20260506145323 7 270 0.0 0.0 0.00 0.00 0.00 3 1018.4
20260506144642 7 270 0.0 0.0 0.00 0.00 0.00 6 1018.4
20260506143959 7 270 0.0 0.0 0.00 0.00 0.00 7 1018.2
20260506143317 6 270 0.0 0.0 0.00 0.00 0.00 8 1018.4
20260506142634 6 270 0.0 0.0 0.00 0.00 0.00 8 1018.5
20260506141953 6 270 0.0 0.0 0.00 0.00 0.00 9 1018.4
20260506141310 6 270 0.0 0.0 0.00 0.00 0.00 10 1018.4
20260506140628 5 270 0.0 0.0 0.00 0.00 0.00 11 1018.2
20260506135945 5 270 0.0 0.0 0.00 0.00 0.00 12 1018.2
20260506135306 5 270 0.0 0.0 0.00 0.00 0.00 13 1018.3
20260506134621 4 270 0.0 0.0 0.00 0.00 0.00 13 1018.6
20260506133939 4 270 0.0 0.0 0.00 0.00 0.00 13 1018.5
20260506133256 3 270 0.0 0.0 0.00 0.00 0.00 13 1018.5
20260506132615 3 270 0.0 0.0 0.00 0.00 0.00 13 1018.4
20260506131932 3 270 0.0 0.0 0.00 0.00 0.00 14 1018.3
20260506131250 3 270 0.0 0.0 0.00 0.00 0.00 14 1018.3
20260506130607 2 270 0.0 0.0 0.00 0.00 0.00 15 1018.0
20260506125926 2 270 0.0 0.0 0.00 0.00 0.00 15 1018.0
20260506125243 2 270 0.0 0.0 0.00 0.00 0.00 16 1017.9
20260506124601 2 270 0.0 0.0 0.00 0.00 0.00 15 1017.8
20260506123918 2 270 0.0 0.0 0.00 0.00 0.00 16 1017.7
20260506123237 1 270 0.0 0.0 0.00 0.00 0.00 17 1017.6
20260506122554 1 270 0.0 0.0 0.00 0.00 0.00 17 1017.6
20260506121912 1 270 0.0 0.0 0.00 0.00 0.00 16 1017.4
20260506121229 1 270 0.0 0.0 0.00 0.00 0.00 16 1017.6
20260506120548 0 270 0.0 0.0 0.00 0.00 0.00 17 1017.5
20260506115905 0 270 0.0 0.0 0.00 0.00 0.00 16 1017.5
20260506115223 0 270 0.0 0.0 0.00 0.00 0.00 15 1017.3
20260506114540 0 270 0.0 0.0 0.00 0.00 0.00 15 1017.2
20260506113859 0 270 0.0 0.0 0.00 0.00 0.00 14 1016.9
20260506113216 0 270 0.0 0.0 0.00 0.00 0.00 14 1017.0
20260506112534 0 270 0.0 0.0 0.00 0.00 0.00 14 1017.1
20260506111851 0 270 0.0 0.0 0.00 0.00 0.00 13 1016.8
20260506111210 0 270 0.0 0.0 0.00 0.00 0.00 13 1016.8
20260506110527 0 270 0.0 0.0 0.00 0.00 0.00 13 1016.9
20260506105845 0 270 0.0 0.0 0.00 0.00 0.00 13 1016.6
20260506105202 1 270 0.0 0.0 0.00 0.00 0.00 12 1016.6
20260506104521 1 270 0.0 0.0 0.00 0.00 0.00 12 1016.7
20260506103838 1 270 0.0 0.0 0.00 0.00 0.00 12 1016.5
20260506103156 1 270 0.0 0.0 0.00 0.00 0.00 12 1016.5
20260506102513 1 270 0.0 0.0 0.00 0.00 0.00 12 1016.3
20260506101832 1 270 0.0 0.0 0.00 0.00 0.00 12 1016.3
20260506101149 1 270 0.0 0.0 0.00 0.00 0.00 12 1016.3
20260506100507 1 270 0.0 0.0 0.00 0.00 0.00 12 1016.2
20260506095824 1 270 0.0 0.0 0.00 0.00 0.00 12 1016.2
20260506095143 1 270 0.0 0.0 0.00 0.00 0.00 11 1016.2
20260506094500 1 270 0.0 0.0 0.00 0.00 0.00 11 1016.0
20260506093818 1 270 0.0 0.0 0.00 0.00 0.00 11 1016.0
20260506093135 1 270 0.0 0.0 0.00 0.00 0.00 10 1015.9
20260506092454 1 270 0.0 0.0 0.00 0.00 0.00 10 1016.0
20260506091811 1 270 0.0 0.0 0.00 0.00 0.00 11 1016.1
20260506091129 1 270 0.0 0.0 0.00 0.00 0.00 10 1016.1
20260506090446 1 270 0.0 0.0 0.00 0.00 0.00 9 1016.0
20260506085805 1 270 0.0 0.0 0.00 0.00 0.00 9 1016.0
20260506085122 1 270 0.0 0.0 0.00 0.00 0.00 9 1016.0
20260506084440 1 270 0.0 0.0 0.00 0.00 0.00 9 1015.9
20260506083757 1 270 0.0 0.0 0.00 0.00 0.00 9 1015.9
20260506083116 1 270 0.0 0.0 0.00 0.00 0.00 8 1015.9
20260506082433 1 270 0.0 0.0 0.00 0.00 0.00 8 1015.8
20260506081751 1 270 0.0 0.0 0.00 0.00 0.00 8 1015.8
20260506081108 1 270 0.0 0.0 0.00 0.00 0.00 8 1016.0
20260506080427 1 270 0.0 0.0 0.00 0.00 0.00 7 1016.0
20260506073055 2 270 0.0 0.0 0.00 0.00 0.00 5 1016.0
20260506072413 2 270 0.0 0.0 0.00 0.00 0.00 4 1016.1
20260506071730 2 270 0.0 0.0 0.00 0.00 0.00 3 1015.9
20260506071049 2 270 0.0 0.0 0.00 0.00 0.00 3 1015.8
20260506070406 2 270 0.0 0.0 0.00 0.00 0.00 3 1015.8
20260506062352 3 270 0.0 0.0 0.00 0.00 0.00 1 1015.6
20260506061711 3 270 0.0 0.0 0.00 0.00 0.00 100 1015.7
20260506061028 3 270 0.0 0.0 0.00 0.00 0.00 100 1015.8
20260506060346 3 270 0.0 0.0 0.00 0.00 0.00 100 1015.8
20260506051008 4 270 0.0 0.0 0.00 0.00 0.00 83 1015.3
20260506050325 4 270 0.0 0.0 0.00 0.00 0.00 83 1015.1